| time (UTC) | temp F | wind direction | speed MPH | gust MPH | rain 1hr in | rain 24hr in | rain mn in | humidity % | barometer mb |
| 20260504140905 | 68 | 180 | 0.0 | 0.0 | 0.00 | 0.00 | 0.00 | 43 | |
| 20260504140832 | 68 | 180 | 0.0 | 0.0 | 0.00 | 0.00 | 0.00 | 43 | |
| 20260504140630 | 68 | 180 | 0.0 | 0.0 | 0.00 | 0.00 | 0.00 | 43 | |
| 20260504140429 | 69 | 180 | 0.0 | 0.0 | 0.00 | 0.00 | 0.00 | 44 | |
| 20260504140227 | 68 | 180 | 0.0 | 0.0 | 0.00 | 0.00 | 0.00 | 42 | |
| 20260504130744 | 66 | 180 | 0.0 | 0.0 | 0.00 | 0.00 | 0.00 | 46 | |
| 20260504130542 | 66 | 180 | 0.0 | 0.0 | 0.00 | 0.00 | 0.00 | 46 | |
| 20260504130340 | 66 | 180 | 0.0 | 0.0 | 0.00 | 0.00 | 0.00 | 47 | |
| 20260504130139 | 66 | 180 | 0.0 | 0.0 | 0.00 | 0.00 | 0.00 | 47 | |
| 20260504120255 | 65 | 180 | 0.0 | 0.0 | 0.00 | 0.00 | 0.00 | 47 | |
| 20260504110612 | 65 | 180 | 0.0 | 0.0 | 0.00 | 0.00 | 0.00 | 51 | |
| 20260504110444 | 66 | 180 | 0.0 | 0.0 | 0.00 | 0.00 | 0.00 | 51 | |
| 20260504110410 | 66 | 180 | 0.0 | 0.0 | 0.00 | 0.00 | 0.00 | 51 | |
| 20260504100526 | 64 | 180 | 0.0 | 0.0 | 0.00 | 0.00 | 0.00 | 54 | |
| 20260504100324 | 63 | 180 | 0.0 | 0.0 | 0.00 | 0.00 | 0.00 | 54 | |
| 20260504100215 | 64 | 180 | 0.0 | 0.0 | 0.00 | 0.00 | 0.00 | 53 | |
| 20260504100123 | 64 | 180 | 0.0 | 0.0 | 0.00 | 0.00 | 0.00 | 53 | |
| 20260504082005 | 61 | 180 | 0.0 | 0.0 | 0.00 | 0.00 | 0.00 | 71 | |
| 20260504081602 | 61 | 180 | 0.0 | 0.0 | 0.00 | 0.00 | 0.00 | 69 | |
| 20260504081400 | 62 | 180 | 0.0 | 0.0 | 0.00 | 0.00 | 0.00 | 71 | |
| 20260504081158 | 61 | 180 | 0.0 | 0.0 | 0.00 | 0.00 | 0.00 | 75 | |
| 20260504080957 | 60 | 180 | 0.0 | 0.0 | 0.00 | 0.00 | 0.00 | 76 | |
| 20260504080832 | 60 | 180 | 0.0 | 0.0 | 0.00 | 0.00 | 0.00 | 77 | |
| 20260504080756 | 60 | 180 | 0.0 | 0.0 | 0.00 | 0.00 | 0.00 | 77 | |
| 20260504080353 | 59 | 180 | 0.0 | 0.0 | 0.00 | 0.00 | 0.00 | 75 | |
| 20260504080151 | 59 | 180 | 0.0 | 0.0 | 0.00 | 0.00 | 0.00 | 75 | |
| 20260504070306 | 58 | 180 | 0.0 | 0.0 | 0.00 | 0.00 | 0.00 | 88 | |
| 20260504070104 | 56 | 180 | 0.0 | 0.0 | 0.00 | 0.00 | 0.00 | 89 | |
| 20260504060220 | 52 | 180 | 0.0 | 0.0 | 0.00 | 0.00 | 0.00 | 90 | |
| 20260504050739 | 53 | 180 | 0.0 | 0.0 | 0.00 | 0.00 | 0.00 | 90 | |
| 20260504050537 | 52 | 180 | 0.0 | 0.0 | 0.00 | 0.00 | 0.00 | 90 | |
| 20260504050417 | 53 | 180 | 0.0 | 0.0 | 0.00 | 0.00 | 0.00 | 90 | |
| 20260504050336 | 53 | 180 | 0.0 | 0.0 | 0.00 | 0.00 | 0.00 | 90 | |
| 20260504045933 | 52 | 180 | 0.0 | 0.0 | 0.00 | 0.00 | 0.00 | 90 | |
| 20260504045731 | 52 | 180 | 0.0 | 0.0 | 0.00 | 0.00 | 0.00 | 90 | |
| 20260504045530 | 52 | 180 | 0.0 | 0.0 | 0.00 | 0.00 | 0.00 | 90 | |
| 20260504045328 | 52 | 180 | 0.0 | 0.0 | 0.00 | 0.00 | 0.00 | 90 | |
| 20260504045127 | 52 | 180 | 0.0 | 0.0 | 0.00 | 0.00 | 0.00 | 90 | |
| 20260504044925 | 52 | 180 | 0.0 | 0.0 | 0.00 | 0.00 | 0.00 | 90 | |
| 20260504044724 | 52 | 180 | 0.0 | 0.0 | 0.00 | 0.00 | 0.00 | 90 | |
| 20260504044522 | 52 | 180 | 0.0 | 0.0 | 0.00 | 0.00 | 0.00 | 90 | |
| 20260504044320 | 53 | 180 | 0.0 | 0.0 | 0.00 | 0.00 | 0.00 | 90 | |
| 20260504044119 | 53 | 180 | 0.0 | 0.0 | 0.00 | 0.00 | 0.00 | 90 | |
| 20260504044004 | 53 | 180 | 0.0 | 0.0 | 0.00 | 0.00 | 0.00 | 90 | |
| 20260504043917 | 53 | 180 | 0.0 | 0.0 | 0.00 | 0.00 | 0.00 | 90 | |
| 20260504043716 | 52 | 180 | 0.0 | 0.0 | 0.00 | 0.00 | 0.00 | 90 | |
| 20260504043514 | 52 | 180 | 0.0 | 0.0 | 0.00 | 0.00 | 0.00 | 90 | |
| 20260504043428 | 52 | 180 | 0.0 | 0.0 | 0.00 | 0.00 | 0.00 | 90 | |
| 20260504043313 | 52 | 180 | 0.0 | 0.0 | 0.00 | 0.00 | 0.00 | 90 | |
| 20260504043111 | 52 | 180 | 0.0 | 0.0 | 0.00 | 0.00 | 0.00 | 90 | |
| 20260504042910 | 52 | 180 | 0.0 | 0.0 | 0.00 | 0.00 | 0.00 | 90 | |
| 20260504042741 | 52 | 180 | 0.0 | 0.0 | 0.00 | 0.00 | 0.00 | 90 | |
| 20260504042708 | 52 | 180 | 0.0 | 0.0 | 0.00 | 0.00 | 0.00 | 90 | |
| 20260504042507 | 52 | 180 | 0.0 | 0.0 | 0.00 | 0.00 | 0.00 | 90 | |
| 20260504042305 | 52 | 180 | 0.0 | 0.0 | 0.00 | 0.00 | 0.00 | 90 | |
| 20260504042104 | 52 | 180 | 0.0 | 0.0 | 0.00 | 0.00 | 0.00 | 90 | |
| 20260504041902 | 52 | 180 | 0.0 | 0.0 | 0.00 | 0.00 | 0.00 | 90 | |
| 20260504041701 | 52 | 180 | 0.0 | 0.0 | 0.00 | 0.00 | 0.00 | 90 | |
| 20260504041549 | 52 | 180 | 0.0 | 0.0 | 0.00 | 0.00 | 0.00 | 90 | |
| 20260504041459 | 52 | 180 | 0.0 | 0.0 | 0.00 | 0.00 | 0.00 | 90 | |
| 20260504041258 | 52 | 180 | 0.0 | 0.0 | 0.00 | 0.00 | 0.00 | 90 | |
| 20260504041056 | 52 | 180 | 0.0 | 0.0 | 0.00 | 0.00 | 0.00 | 90 | |
| 20260504040934 | 52 | 180 | 0.0 | 0.0 | 0.00 | 0.00 | 0.00 | 90 | |
| 20260504040855 | 52 | 180 | 0.0 | 0.0 | 0.00 | 0.00 | 0.00 | 90 | |
| 20260504040652 | 52 | 180 | 0.0 | 0.0 | 0.00 | 0.00 | 0.00 | 90 | |
| 20260504040451 | 52 | 180 | 0.0 | 0.0 | 0.00 | 0.00 | 0.00 | 90 | |
| 20260504040346 | 52 | 180 | 0.0 | 0.0 | 0.00 | 0.00 | 0.00 | 90 | |
| 20260504040048 | 52 | 180 | 0.0 | 0.0 | 0.00 | 0.00 | 0.00 | 90 | |
| 20260504035846 | 53 | 180 | 0.0 | 0.0 | 0.00 | 0.00 | 0.00 | 90 | |
| 20260504035742 | 53 | 180 | 0.0 | 0.0 | 0.00 | 0.00 | 0.00 | 90 | |
| 20260504035645 | 53 | 180 | 0.0 | 0.0 | 0.00 | 0.00 | 0.00 | 90 | |
| 20260504035443 | 52 | 180 | 0.0 | 0.0 | 0.00 | 0.00 | 0.00 | 90 | |
| 20260504035338 | 52 | 180 | 0.0 | 0.0 | 0.00 | 0.00 | 0.00 | 90 | |
| 20260504035242 | 52 | 180 | 0.0 | 0.0 | 0.00 | 0.00 | 0.00 | 90 | |
| 20260504035040 | 52 | 180 | 0.0 | 0.0 | 0.00 | 0.00 | 0.00 | 90 | |
| 20260504034839 | 52 | 180 | 0.0 | 0.0 | 0.00 | 0.00 | 0.00 | 90 | |
| 20260504034637 | 52 | 180 | 0.0 | 0.0 | 0.00 | 0.00 | 0.00 | 90 | |
| 20260504034534 | 53 | 180 | 0.0 | 0.0 | 0.00 | 0.00 | 0.00 | 90 | |
| 20260504034436 | 53 | 180 | 0.0 | 0.0 | 0.00 | 0.00 | 0.00 | 90 | |
| 20260504034331 | 53 | 180 | 0.0 | 0.0 | 0.00 | 0.00 | 0.00 | 90 | |
| 20260504034234 | 53 | 180 | 0.0 | 0.0 | 0.00 | 0.00 | 0.00 | 90 | |
| 20260504034033 | 52 | 180 | 0.0 | 0.0 | 0.00 | 0.00 | 0.00 | 90 | |
| 20260504033908 | 52 | 180 | 0.0 | 0.0 | 0.00 | 0.00 | 0.00 | 90 | |
| 20260504033831 | 52 | 180 | 0.0 | 0.0 | 0.00 | 0.00 | 0.00 | 90 | |
| 20260504033630 | 53 | 180 | 0.0 | 0.0 | 0.00 | 0.00 | 0.00 | 90 | |
| 20260504033507 | 53 | 180 | 0.0 | 0.0 | 0.00 | 0.00 | 0.00 | 89 | |
| 20260504033428 | 53 | 180 | 0.0 | 0.0 | 0.00 | 0.00 | 0.00 | 89 | |
| 20260504033328 | 52 | 180 | 0.0 | 0.0 | 0.00 | 0.00 | 0.00 | 89 | |
| 20260504033226 | 52 | 180 | 0.0 | 0.0 | 0.00 | 0.00 | 0.00 | 89 | |
| 20260504033025 | 53 | 180 | 0.0 | 0.0 | 0.00 | 0.00 | 0.00 | 89 | |
| 20260504032912 | 52 | 180 | 0.0 | 0.0 | 0.00 | 0.00 | 0.00 | 89 | |
| 20260504032824 | 52 | 180 | 0.0 | 0.0 | 0.00 | 0.00 | 0.00 | 89 | |
| 20260504032622 | 54 | 180 | 0.0 | 0.0 | 0.00 | 0.00 | 0.00 | 89 | |
| 20260504032510 | 53 | 180 | 0.0 | 0.0 | 0.00 | 0.00 | 0.00 | 89 | |
| 20260504032420 | 53 | 180 | 0.0 | 0.0 | 0.00 | 0.00 | 0.00 | 89 | |
| 20260504032219 | 53 | 180 | 0.0 | 0.0 | 0.00 | 0.00 | 0.00 | 89 | |
| 20260504032016 | 52 | 180 | 0.0 | 0.0 | 0.00 | 0.00 | 0.00 | 89 | |
| 20260504031815 | 52 | 180 | 0.0 | 0.0 | 0.00 | 0.00 | 0.00 | 89 | |
| 20260504031651 | 52 | 180 | 0.0 | 0.0 | 0.00 | 0.00 | 0.00 | 89 | |
| 20260504031613 | 52 | 180 | 0.0 | 0.0 | 0.00 | 0.00 | 0.00 | 89 | |
| 20260504031514 | 53 | 180 | 0.0 | 0.0 | 0.00 | 0.00 | 0.00 | 89 | |
| 20260504031412 | 53 | 180 | 0.0 | 0.0 | 0.00 | 0.00 | 0.00 | 89 | |
| 20260504031209 | 53 | 180 | 0.0 | 0.0 | 0.00 | 0.00 | 0.00 | 89 | |
| 20260504031007 | 53 | 180 | 0.0 | 0.0 | 0.00 | 0.00 | 0.00 | 89 | |
| 20260504030806 | 53 | 180 | 0.0 | 0.0 | 0.00 | 0.00 | 0.00 | 89 | |
| 20260504030604 | 53 | 180 | 0.0 | 0.0 | 0.00 | 0.00 | 0.00 | 89 | |
| 20260504030442 | 53 | 180 | 0.0 | 0.0 | 0.00 | 0.00 | 0.00 | 89 | |
| 20260504030403 | 53 | 180 | 0.0 | 0.0 | 0.00 | 0.00 | 0.00 | 89 | |
| 20260504030250 | 53 | 180 | 0.0 | 0.0 | 0.00 | 0.00 | 0.00 | 89 | |
| 20260504030202 | 53 | 180 | 0.0 | 0.0 | 0.00 | 0.00 | 0.00 | 89 | |
| 20260504030000 | 53 | 180 | 0.0 | 0.0 | 0.00 | 0.00 | 0.00 | 88 | |
| 20260504025758 | 52 | 180 | 0.0 | 0.0 | 0.00 | 0.00 | 0.00 | 88 | |
| 20260504025557 | 53 | 180 | 0.0 | 0.0 | 0.00 | 0.00 | 0.00 | 88 | |
| 20260504025355 | 53 | 180 | 0.0 | 0.0 | 0.00 | 0.00 | 0.00 | 88 | |
| 20260504025154 | 52 | 180 | 0.0 | 0.0 | 0.00 | 0.00 | 0.00 | 88 | |
| 20260504024952 | 52 | 180 | 0.0 | 0.0 | 0.00 | 0.00 | 0.00 | 88 | |
| 20260504024840 | 53 | 180 | 0.0 | 0.0 | 0.00 | 0.00 | 0.00 | 88 | |
| 20260504024751 | 53 | 180 | 0.0 | 0.0 | 0.00 | 0.00 | 0.00 | 88 | |
| 20260504024549 | 53 | 180 | 0.0 | 0.0 | 0.00 | 0.00 | 0.00 | 88 | |
| 20260504024348 | 53 | 180 | 0.0 | 0.0 | 0.00 | 0.00 | 0.00 | 88 | |
| 20260504024146 | 53 | 180 | 0.0 | 0.0 | 0.00 | 0.00 | 0.00 | 88 | |
| 20260504023945 | 52 | 180 | 0.0 | 0.0 | 0.00 | 0.00 | 0.00 | 88 | |
| 20260504023743 | 52 | 180 | 0.0 | 0.0 | 0.00 | 0.00 | 0.00 | 88 | |
| 20260504023542 | 53 | 180 | 0.0 | 0.0 | 0.00 | 0.00 | 0.00 | 88 | |
| 20260504023340 | 53 | 180 | 0.0 | 0.0 | 0.00 | 0.00 | 0.00 | 88 | |
| 20260504023241 | 53 | 180 | 0.0 | 0.0 | 0.00 | 0.00 | 0.00 | 88 | |
| 20260504023139 | 53 | 180 | 0.0 | 0.0 | 0.00 | 0.00 | 0.00 | 88 | |
| 20260504022937 | 53 | 180 | 0.0 | 0.0 | 0.00 | 0.00 | 0.00 | 88 | |
| 20260504022736 | 53 | 180 | 0.0 | 0.0 | 0.00 | 0.00 | 0.00 | 88 | |
| 20260504022534 | 53 | 180 | 0.0 | 0.0 | 0.00 | 0.00 | 0.00 | 88 | |
| 20260504022333 | 53 | 180 | 0.0 | 0.0 | 0.00 | 0.00 | 0.00 | 88 | |
| 20260504022131 | 53 | 180 | 0.0 | 0.0 | 0.00 | 0.00 | 0.00 | 88 | |
| 20260504021930 | 53 | 180 | 0.0 | 0.0 | 0.00 | 0.00 | 0.00 | 88 | |
| 20260504021728 | 53 | 180 | 0.0 | 0.0 | 0.00 | 0.00 | 0.00 | 88 | |
| 20260504021527 | 53 | 180 | 0.0 | 0.0 | 0.00 | 0.00 | 0.00 | 87 | |
| 20260504021325 | 53 | 180 | 0.0 | 0.0 | 0.00 | 0.00 | 0.00 | 87 | |
| 20260504021124 | 53 | 180 | 0.0 | 0.0 | 0.00 | 0.00 | 0.00 | 87 | |
| 20260504020922 | 53 | 180 | 0.0 | 0.0 | 0.00 | 0.00 | 0.00 | 87 | |
| 20260504020818 | 53 | 180 | 0.0 | 0.0 | 0.00 | 0.00 | 0.00 | 87 | |
| 20260504020721 | 53 | 180 | 0.0 | 0.0 | 0.00 | 0.00 | 0.00 | 87 | |
| 20260504020519 | 53 | 180 | 0.0 | 0.0 | 0.00 | 0.00 | 0.00 | 87 | |
| 20260504020350 | 53 | 180 | 0.0 | 0.0 | 0.00 | 0.00 | 0.00 | 87 | |
| 20260504020318 | 53 | 180 | 0.0 | 0.0 | 0.00 | 0.00 | 0.00 | 87 | |
| 20260504020116 | 53 | 180 | 0.0 | 0.0 | 0.00 | 0.00 | 0.00 | 87 | |
| 20260504015956 | 53 | 180 | 0.0 | 0.0 | 0.00 | 0.00 | 0.00 | 87 | |
| 20260504015915 | 53 | 180 | 0.0 | 0.0 | 0.00 | 0.00 | 0.00 | 87 | |
| 20260504015712 | 53 | 180 | 0.0 | 0.0 | 0.00 | 0.00 | 0.00 | 87 | |
| 20260504015549 | 53 | 180 | 0.0 | 0.0 | 0.00 | 0.00 | 0.00 | 87 | |
| 20260504015511 | 53 | 180 | 0.0 | 0.0 | 0.00 | 0.00 | 0.00 | 87 | |
| 20260504015107 | 53 | 180 | 0.0 | 0.0 | 0.00 | 0.00 | 0.00 | 86 | |
| 20260504014906 | 53 | 180 | 0.0 | 0.0 | 0.00 | 0.00 | 0.00 | 86 | |
| 20260504014704 | 53 | 180 | 0.0 | 0.0 | 0.00 | 0.00 | 0.00 | 86 | |
| 20260504014503 | 53 | 180 | 0.0 | 0.0 | 0.00 | 0.00 | 0.00 | 86 | |
| 20260504014301 | 54 | 180 | 0.0 | 0.0 | 0.00 | 0.00 | 0.00 | 86 | |
| 20260504014100 | 54 | 180 | 0.0 | 0.0 | 0.00 | 0.00 | 0.00 | 85 | |
| 20260504013858 | 54 | 180 | 0.0 | 0.0 | 0.00 | 0.00 | 0.00 | 85 | |
| 20260504013657 | 54 | 180 | 0.0 | 0.0 | 0.00 | 0.00 | 0.00 | 85 | |
| 20260504013455 | 53 | 180 | 0.0 | 0.0 | 0.00 | 0.00 | 0.00 | 85 | |
| 20260504013338 | 54 | 180 | 0.0 | 0.0 | 0.00 | 0.00 | 0.00 | 85 | |
| 20260504013254 | 54 | 180 | 0.0 | 0.0 | 0.00 | 0.00 | 0.00 | 85 | |
| 20260504013052 | 53 | 180 | 0.0 | 0.0 | 0.00 | 0.00 | 0.00 | 85 | |
| 20260504012851 | 54 | 180 | 0.0 | 0.0 | 0.00 | 0.00 | 0.00 | 85 | |
| 20260504012649 | 54 | 180 | 0.0 | 0.0 | 0.00 | 0.00 | 0.00 | 85 | |
| 20260504012447 | 54 | 180 | 0.0 | 0.0 | 0.00 | 0.00 | 0.00 | 85 | |
| 20260504012246 | 54 | 180 | 0.0 | 0.0 | 0.00 | 0.00 | 0.00 | 85 | |
| 20260504012044 | 54 | 180 | 0.0 | 0.0 | 0.00 | 0.00 | 0.00 | 85 | |
| 20260504011843 | 55 | 180 | 0.0 | 0.0 | 0.00 | 0.00 | 0.00 | 84 | |
| 20260504011641 | 55 | 180 | 0.0 | 0.0 | 0.00 | 0.00 | 0.00 | 84 | |
| 20260504011440 | 54 | 180 | 0.0 | 0.0 | 0.00 | 0.00 | 0.00 | 84 | |
| 20260504011238 | 54 | 180 | 0.0 | 0.0 | 0.00 | 0.00 | 0.00 | 84 | |
| 20260504010835 | 55 | 180 | 0.0 | 0.0 | 0.00 | 0.00 | 0.00 | 84 | |
| 20260504010705 | 54 | 180 | 0.0 | 0.0 | 0.00 | 0.00 | 0.00 | 84 | |
| 20260504010634 | 54 | 180 | 0.0 | 0.0 | 0.00 | 0.00 | 0.00 | 84 | |
| 20260504010432 | 54 | 180 | 0.0 | 0.0 | 0.00 | 0.00 | 0.00 | 84 | |
| 20260504010231 | 54 | 180 | 0.0 | 0.0 | 0.00 | 0.00 | 0.00 | 84 | |
| 20260504010029 | 54 | 180 | 0.0 | 0.0 | 0.00 | 0.00 | 0.00 | 84 | |
| 20260504005911 | 54 | 180 | 0.0 | 0.0 | 0.00 | 0.00 | 0.00 | 84 | |
| 20260504005828 | 54 | 180 | 0.0 | 0.0 | 0.00 | 0.00 | 0.00 | 84 | |
| 20260504005625 | 54 | 180 | 0.0 | 0.0 | 0.00 | 0.00 | 0.00 | 84 | |
| 20260504005502 | 54 | 180 | 0.0 | 0.0 | 0.00 | 0.00 | 0.00 | 83 | |
| 20260504005424 | 54 | 180 | 0.0 | 0.0 | 0.00 | 0.00 | 0.00 | 83 | |
| 20260504005329 | 55 | 180 | 0.0 | 0.0 | 0.00 | 0.00 | 0.00 | 83 | |
| 20260504005222 | 55 | 180 | 0.0 | 0.0 | 0.00 | 0.00 | 0.00 | 83 | |
| 20260504005021 | 54 | 180 | 0.0 | 0.0 | 0.00 | 0.00 | 0.00 | 83 | |
| 20260504004819 | 55 | 180 | 0.0 | 0.0 | 0.00 | 0.00 | 0.00 | 83 | |
| 20260504004617 | 54 | 180 | 0.0 | 0.0 | 0.00 | 0.00 | 0.00 | 83 | |
| 20260504004415 | 54 | 180 | 0.0 | 0.0 | 0.00 | 0.00 | 0.00 | 83 | |
| 20260504004258 | 54 | 180 | 0.0 | 0.0 | 0.00 | 0.00 | 0.00 | 83 | |
| 20260504004214 | 54 | 180 | 0.0 | 0.0 | 0.00 | 0.00 | 0.00 | 83 | |
| 20260504004046 | 55 | 180 | 0.0 | 0.0 | 0.00 | 0.00 | 0.00 | 83 | |
| 20260504004012 | 55 | 180 | 0.0 | 0.0 | 0.00 | 0.00 | 0.00 | 83 | |
| 20260504003609 | 55 | 180 | 0.0 | 0.0 | 0.00 | 0.00 | 0.00 | 82 | |
| 20260504003408 | 55 | 180 | 0.0 | 0.0 | 0.00 | 0.00 | 0.00 | 82 | |
| 20260504003206 | 55 | 180 | 0.0 | 0.0 | 0.00 | 0.00 | 0.00 | 82 | |
| 20260504003005 | 55 | 180 | 0.0 | 0.0 | 0.00 | 0.00 | 0.00 | 82 | |
| 20260504002802 | 55 | 180 | 0.0 | 0.0 | 0.00 | 0.00 | 0.00 | 82 | |
| 20260504002632 | 55 | 180 | 0.0 | 0.0 | 0.00 | 0.00 | 0.00 | 82 | |
| 20260504002601 | 55 | 180 | 0.0 | 0.0 | 0.00 | 0.00 | 0.00 | 82 | |
| 20260504002359 | 56 | 180 | 0.0 | 0.0 | 0.00 | 0.00 | 0.00 | 82 | |
| 20260504002303 | 55 | 180 | 0.0 | 0.0 | 0.00 | 0.00 | 0.00 | 82 | |
| 20260504002158 | 55 | 180 | 0.0 | 0.0 | 0.00 | 0.00 | 0.00 | 82 | |
| 20260504001956 | 55 | 180 | 0.0 | 0.0 | 0.00 | 0.00 | 0.00 | 82 | |
| 20260504001755 | 56 | 180 | 0.0 | 0.0 | 0.00 | 0.00 | 0.00 | 82 | |
| 20260504001553 | 56 | 180 | 0.0 | 0.0 | 0.00 | 0.00 | 0.00 | 82 | |
| 20260504001351 | 56 | 180 | 0.0 | 0.0 | 0.00 | 0.00 | 0.00 | 82 | |
| 20260504001235 | 56 | 180 | 0.0 | 0.0 | 0.00 | 0.00 | 0.00 | 82 | |
| 20260504001149 | 56 | 180 | 0.0 | 0.0 | 0.00 | 0.00 | 0.00 | 82 | |
| 20260504001036 | 56 | 180 | 0.0 | 0.0 | 0.00 | 0.00 | 0.00 | 82 | |
| 20260504000947 | 56 | 180 | 0.0 | 0.0 | 0.00 | 0.00 | 0.00 | 82 | |
| 20260504000821 | 56 | 180 | 0.0 | 0.0 | 0.00 | 0.00 | 0.00 | 82 | |
| 20260504000746 | 56 | 180 | 0.0 | 0.0 | 0.00 | 0.00 | 0.00 | 82 | |
| 20260504000544 | 56 | 180 | 0.0 | 0.0 | 0.00 | 0.00 | 0.00 | 82 | |
| 20260504000343 | 56 | 180 | 0.0 | 0.0 | 0.00 | 0.00 | 0.00 | 82 | |
| 20260504000141 | 56 | 180 | 0.0 | 0.0 | 0.00 | 0.00 | 0.00 | 82 | |
| 20260503235940 | 55 | 180 | 0.0 | 0.0 | 0.00 | 0.00 | 0.00 | 82 | |
| 20260503235819 | 55 | 180 | 0.0 | 0.0 | 0.00 | 0.00 | 0.00 | 82 | |
| 20260503235739 | 55 | 180 | 0.0 | 0.0 | 0.00 | 0.00 | 0.00 | 82 | |
| 20260503235334 | 56 | 180 | 0.0 | 0.0 | 0.00 | 0.00 | 0.00 | 82 | |
| 20260503235203 | 56 | 180 | 0.0 | 0.0 | 0.00 | 0.00 | 0.00 | 82 | |
| 20260503234931 | 56 | 180 | 0.0 | 0.0 | 0.00 | 0.00 | 0.00 | 82 | |
| 20260503234730 | 56 | 180 | 0.0 | 0.0 | 0.00 | 0.00 | 0.00 | 82 | |
| 20260503234600 | 57 | 180 | 0.0 | 0.0 | 0.00 | 0.00 | 0.00 | 82 | |
| 20260503234529 | 57 | 180 | 0.0 | 0.0 | 0.00 | 0.00 | 0.00 | 82 | |
| 20260503234328 | 56 | 180 | 0.0 | 0.0 | 0.00 | 0.00 | 0.00 | 82 | |
| 20260503234125 | 56 | 180 | 0.0 | 0.0 | 0.00 | 0.00 | 0.00 | 82 | |
| 20260503233923 | 56 | 180 | 0.0 | 0.0 | 0.00 | 0.00 | 0.00 | 82 | |
| 20260503233811 | 56 | 180 | 0.0 | 0.0 | 0.00 | 0.00 | 0.00 | 82 | |
| 20260503233722 | 56 | 180 | 0.0 | 0.0 | 0.00 | 0.00 | 0.00 | 82 | |
| 20260503233520 | 56 | 180 | 0.0 | 0.0 | 0.00 | 0.00 | 0.00 | 82 | |
| 20260503233319 | 56 | 180 | 0.0 | 0.0 | 0.00 | 0.00 | 0.00 | 82 | |
| 20260503233117 | 56 | 180 | 0.0 | 0.0 | 0.00 | 0.00 | 0.00 | 82 | |
| 20260503232916 | 56 | 180 | 0.0 | 0.0 | 0.00 | 0.00 | 0.00 | 82 | |
| 20260503232714 | 56 | 180 | 0.0 | 0.0 | 0.00 | 0.00 | 0.00 | 82 | |
| 20260503232513 | 56 | 180 | 0.0 | 0.0 | 0.00 | 0.00 | 0.00 | 82 | |
| 20260503232311 | 56 | 180 | 0.0 | 0.0 | 0.00 | 0.00 | 0.00 | 81 | |
| 20260503232110 | 56 | 180 | 0.0 | 0.0 | 0.00 | 0.00 | 0.00 | 81 | |
| 20260503231908 | 56 | 180 | 0.0 | 0.0 | 0.00 | 0.00 | 0.00 | 81 | |
| 20260503231707 | 57 | 180 | 0.0 | 0.0 | 0.00 | 0.00 | 0.00 | 81 | |
| 20260503231505 | 57 | 180 | 0.0 | 0.0 | 0.00 | 0.00 | 0.00 | 81 | |
| 20260503231304 | 56 | 180 | 0.0 | 0.0 | 0.00 | 0.00 | 0.00 | 81 | |
| 20260503231102 | 57 | 180 | 0.0 | 0.0 | 0.00 | 0.00 | 0.00 | 81 | |
| 20260503230901 | 56 | 180 | 0.0 | 0.0 | 0.00 | 0.00 | 0.00 | 81 | |
| 20260503230659 | 56 | 180 | 0.0 | 0.0 | 0.00 | 0.00 | 0.00 | 81 | |
| 20260503230458 | 56 | 180 | 0.0 | 0.0 | 0.00 | 0.00 | 0.00 | 81 | |
| 20260503230256 | 56 | 180 | 0.0 | 0.0 | 0.00 | 0.00 | 0.00 | 81 | |
| 20260503230055 | 56 | 180 | 0.0 | 0.0 | 0.00 | 0.00 | 0.00 | 80 | |
| 20260503225853 | 56 | 180 | 0.0 | 0.0 | 0.00 | 0.00 | 0.00 | 80 | |
| 20260503225731 | 57 | 180 | 0.0 | 0.0 | 0.00 | 0.00 | 0.00 | 80 | |
| 20260503225652 | 57 | 180 | 0.0 | 0.0 | 0.00 | 0.00 | 0.00 | 80 | |
| 20260503225450 | 56 | 180 | 0.0 | 0.0 | 0.00 | 0.00 | 0.00 | 80 | |
| 20260503225249 | 56 | 180 | 0.0 | 0.0 | 0.00 | 0.00 | 0.00 | 80 | |
| 20260503225047 | 56 | 180 | 0.0 | 0.0 | 0.00 | 0.00 | 0.00 | 80 | |
| 20260503224846 | 57 | 180 | 0.0 | 0.0 | 0.00 | 0.00 | 0.00 | 80 | |
| 20260503224644 | 57 | 180 | 0.0 | 0.0 | 0.00 | 0.00 | 0.00 | 79 | |
| 20260503224443 | 57 | 180 | 0.0 | 0.0 | 0.00 | 0.00 | 0.00 | 79 | |
| 20260503224241 | 57 | 180 | 0.0 | 0.0 | 0.00 | 0.00 | 0.00 | 79 | |
| 20260503224039 | 57 | 180 | 0.0 | 0.0 | 0.00 | 0.00 | 0.00 | 79 | |
| 20260503223838 | 57 | 180 | 0.0 | 0.0 | 0.00 | 0.00 | 0.00 | 79 | |
| 20260503223735 | 58 | 180 | 0.0 | 0.0 | 0.00 | 0.00 | 0.00 | 79 | |
| 20260503223636 | 58 | 180 | 0.0 | 0.0 | 0.00 | 0.00 | 0.00 | 79 | |
| 20260503223515 | 58 | 180 | 0.0 | 0.0 | 0.00 | 0.00 | 0.00 | 78 | |
| 20260503223435 | 58 | 180 | 0.0 | 0.0 | 0.00 | 0.00 | 0.00 | 78 | |
| 20260503223323 | 57 | 180 | 0.0 | 0.0 | 0.00 | 0.00 | 0.00 | 78 | |
| 20260503223233 | 57 | 180 | 0.0 | 0.0 | 0.00 | 0.00 | 0.00 | 78 | |
| 20260503223032 | 57 | 180 | 0.0 | 0.0 | 0.00 | 0.00 | 0.00 | 78 | |
| 20260503222830 | 57 | 180 | 0.0 | 0.0 | 0.00 | 0.00 | 0.00 | 78 | |
| 20260503222629 | 57 | 180 | 0.0 | 0.0 | 0.00 | 0.00 | 0.00 | 77 | |
| 20260503222426 | 57 | 180 | 0.0 | 0.0 | 0.00 | 0.00 | 0.00 | 77 | |
| 20260503222308 | 57 | 180 | 0.0 | 0.0 | 0.00 | 0.00 | 0.00 | 77 | |
| 20260503222225 | 57 | 180 | 0.0 | 0.0 | 0.00 | 0.00 | 0.00 | 77 | |
| 20260503222022 | 57 | 180 | 0.0 | 0.0 | 0.00 | 0.00 | 0.00 | 76 | |
| 20260503221820 | 57 | 180 | 0.0 | 0.0 | 0.00 | 0.00 | 0.00 | 76 | |
| 20260503221658 | 58 | 180 | 0.0 | 0.0 | 0.00 | 0.00 | 0.00 | 75 | |
| 20260503221619 | 58 | 180 | 0.0 | 0.0 | 0.00 | 0.00 | 0.00 | 75 | |
| 20260503221452 | 58 | 180 | 0.0 | 0.0 | 0.00 | 0.00 | 0.00 | 75 | |
| 20260503221417 | 58 | 180 | 0.0 | 0.0 | 0.00 | 0.00 | 0.00 | 75 | |
| 20260503221300 | 58 | 180 | 0.0 | 0.0 | 0.00 | 0.00 | 0.00 | 75 | |
| 20260503221216 | 58 | 180 | 0.0 | 0.0 | 0.00 | 0.00 | 0.00 | 75 | |
| 20260503221014 | 58 | 180 | 0.0 | 0.0 | 0.00 | 0.00 | 0.00 | 74 | |
| 20260503220813 | 58 | 180 | 0.0 | 0.0 | 0.00 | 0.00 | 0.00 | 74 | |
| 20260503220611 | 58 | 180 | 0.0 | 0.0 | 0.00 | 0.00 | 0.00 | 74 | |
| 20260503220410 | 58 | 180 | 0.0 | 0.0 | 0.00 | 0.00 | 0.00 | 74 | |
| 20260503220049 | 58 | 180 | 0.0 | 0.0 | 0.00 | 0.00 | 0.00 | 74 | |
| 20260503220007 | 58 | 180 | 0.0 | 0.0 | 0.00 | 0.00 | 0.00 | 74 | |
| 20260503215650 | 58 | 180 | 0.0 | 0.0 | 0.00 | 0.00 | 0.00 | 74 | |
| 20260503215604 | 58 | 180 | 0.0 | 0.0 | 0.00 | 0.00 | 0.00 | 74 | |
| 20260503215402 | 58 | 180 | 0.0 | 0.0 | 0.00 | 0.00 | 0.00 | 74 | |
| 20260503215201 | 58 | 180 | 0.0 | 0.0 | 0.00 | 0.00 | 0.00 | 74 | |
| 20260503214959 | 58 | 180 | 0.0 | 0.0 | 0.00 | 0.00 | 0.00 | 74 | |
| 20260503214758 | 58 | 180 | 0.0 | 0.0 | 0.00 | 0.00 | 0.00 | 74 | |
| 20260503214556 | 58 | 180 | 0.0 | 0.0 | 0.00 | 0.00 | 0.00 | 74 | |
| 20260503214355 | 58 | 180 | 0.0 | 0.0 | 0.00 | 0.00 | 0.00 | 74 | |
| 20260503214153 | 58 | 180 | 0.0 | 0.0 | 0.00 | 0.00 | 0.00 | 74 | |
| 20260503213952 | 58 | 180 | 0.0 | 0.0 | 0.00 | 0.00 | 0.00 | 74 | |
| 20260503213750 | 58 | 180 | 0.0 | 0.0 | 0.00 | 0.00 | 0.00 | 74 | |
| 20260503213641 | 59 | 180 | 0.0 | 0.0 | 0.00 | 0.00 | 0.00 | 74 | |
| 20260503213549 | 59 | 180 | 0.0 | 0.0 | 0.00 | 0.00 | 0.00 | 74 | |
| 20260503213348 | 58 | 180 | 0.0 | 0.0 | 0.00 | 0.00 | 0.00 | 74 | |
| 20260503213146 | 58 | 180 | 0.0 | 0.0 | 0.00 | 0.00 | 0.00 | 74 | |
| 20260503212944 | 59 | 180 | 0.0 | 0.0 | 0.00 | 0.00 | 0.00 | 73 | |
| 20260503212743 | 59 | 180 | 0.0 | 0.0 | 0.00 | 0.00 | 0.00 | 73 | |
| 20260503212541 | 58 | 180 | 0.0 | 0.0 | 0.00 | 0.00 | 0.00 | 73 | |
| 20260503212417 | 58 | 180 | 0.0 | 0.0 | 0.00 | 0.00 | 0.00 | 73 | |
| 20260503212340 | 58 | 180 | 0.0 | 0.0 | 0.00 | 0.00 | 0.00 | 73 | |
| 20260503212138 | 59 | 180 | 0.0 | 0.0 | 0.00 | 0.00 | 0.00 | 73 | |
| 20260503211936 | 58 | 180 | 0.0 | 0.0 | 0.00 | 0.00 | 0.00 | 73 | |
| 20260503211610 | 59 | 180 | 0.0 | 0.0 | 0.00 | 0.00 | 0.00 | 73 | |
| 20260503211533 | 59 | 180 | 0.0 | 0.0 | 0.00 | 0.00 | 0.00 | 73 | |
| 20260503211331 | 59 | 180 | 0.0 | 0.0 | 0.00 | 0.00 | 0.00 | 72 | |
| 20260503211219 | 59 | 180 | 0.0 | 0.0 | 0.00 | 0.00 | 0.00 | 72 | |
| 20260503211130 | 59 | 180 | 0.0 | 0.0 | 0.00 | 0.00 | 0.00 | 72 | |
| 20260503210928 | 59 | 180 | 0.0 | 0.0 | 0.00 | 0.00 | 0.00 | 72 | |
| 20260503210726 | 59 | 180 | 0.0 | 0.0 | 0.00 | 0.00 | 0.00 | 71 | |
| 20260503210617 | 59 | 180 | 0.0 | 0.0 | 0.00 | 0.00 | 0.00 | 72 | |
| 20260503210524 | 59 | 180 | 0.0 | 0.0 | 0.00 | 0.00 | 0.00 | 72 | |
| 20260503210323 | 59 | 180 | 0.0 | 0.0 | 0.00 | 0.00 | 0.00 | 71 | |
| 20260503210121 | 59 | 180 | 0.0 | 0.0 | 0.00 | 0.00 | 0.00 | 71 | |
| 20260503205919 | 60 | 180 | 0.0 | 0.0 | 0.00 | 0.00 | 0.00 | 71 | |
| 20260503205718 | 59 | 180 | 0.0 | 0.0 | 0.00 | 0.00 | 0.00 | 71 | |
| 20260503205552 | 59 | 180 | 0.0 | 0.0 | 0.00 | 0.00 | 0.00 | 71 | |
| 20260503205516 | 59 | 180 | 0.0 | 0.0 | 0.00 | 0.00 | 0.00 | 71 | |
| 20260503205411 | 59 | 180 | 0.0 | 0.0 | 0.00 | 0.00 | 0.00 | 71 | |
| 20260503205315 | 59 | 180 | 0.0 | 0.0 | 0.00 | 0.00 | 0.00 | 71 | |
| 20260503205113 | 59 | 180 | 0.0 | 0.0 | 0.00 | 0.00 | 0.00 | 71 | |
| 20260503204955 | 60 | 180 | 0.0 | 0.0 | 0.00 | 0.00 | 0.00 | 71 | |
| 20260503204912 | 60 | 180 | 0.0 | 0.0 | 0.00 | 0.00 | 0.00 | 71 | |
| 20260503204753 | 59 | 180 | 0.0 | 0.0 | 0.00 | 0.00 | 0.00 | 71 | |
| 20260503204709 | 59 | 180 | 0.0 | 0.0 | 0.00 | 0.00 | 0.00 | 71 | |
| 20260503204559 | 59 | 180 | 0.0 | 0.0 | 0.00 | 0.00 | 0.00 | 71 | |
| 20260503204508 | 59 | 180 | 0.0 | 0.0 | 0.00 | 0.00 | 0.00 | 71 | |
| 20260503204306 | 60 | 180 | 0.0 | 0.0 | 0.00 | 0.00 | 0.00 | 71 | |
| 20260503204103 | 60 | 180 | 0.0 | 0.0 | 0.00 | 0.00 | 0.00 | 71 | |
| 20260503203935 | 60 | 180 | 0.0 | 0.0 | 0.00 | 0.00 | 0.00 | 72 | |
| 20260503203902 | 60 | 180 | 0.0 | 0.0 | 0.00 | 0.00 | 0.00 | 72 | |
| 20260503203700 | 60 | 180 | 0.0 | 0.0 | 0.00 | 0.00 | 0.00 | 72 | |
| 20260503203459 | 60 | 180 | 0.0 | 0.0 | 0.00 | 0.00 | 0.00 | 72 | |
| 20260503203257 | 60 | 180 | 0.0 | 0.0 | 0.00 | 0.00 | 0.00 | 73 | |
| 20260503203056 | 60 | 180 | 0.0 | 0.0 | 0.00 | 0.00 | 0.00 | 73 | |
| 20260503202940 | 60 | 180 | 0.0 | 0.0 | 0.00 | 0.00 | 0.00 | 73 | |
| 20260503202854 | 60 | 180 | 0.0 | 0.0 | 0.00 | 0.00 | 0.00 | 73 | |
| 20260503202653 | 60 | 180 | 0.0 | 0.0 | 0.00 | 0.00 | 0.00 | 73 | |
| 20260503202451 | 61 | 180 | 0.0 | 0.0 | 0.00 | 0.00 | 0.00 | 73 | |
| 20260503202345 | 61 | 180 | 0.0 | 0.0 | 0.00 | 0.00 | 0.00 | 73 | |
| 20260503202250 | 61 | 180 | 0.0 | 0.0 | 0.00 | 0.00 | 0.00 | 73 | |
| 20260503202048 | 60 | 180 | 0.0 | 0.0 | 0.00 | 0.00 | 0.00 | 73 | |
| 20260503201847 | 61 | 180 | 0.0 | 0.0 | 0.00 | 0.00 | 0.00 | 73 | |
| 20260503201645 | 60 | 180 | 0.0 | 0.0 | 0.00 | 0.00 | 0.00 | 73 | |
| 20260503201444 | 61 | 180 | 0.0 | 0.0 | 0.00 | 0.00 | 0.00 | 73 | |
| 20260503201242 | 61 | 180 | 0.0 | 0.0 | 0.00 | 0.00 | 0.00 | 73 | |
| 20260503201112 | 61 | 180 | 0.0 | 0.0 | 0.00 | 0.00 | 0.00 | 72 | |
| 20260503201041 | 61 | 180 | 0.0 | 0.0 | 0.00 | 0.00 | 0.00 | 72 | |
| 20260503200839 | 61 | 180 | 0.0 | 0.0 | 0.00 | 0.00 | 0.00 | 72 | |
| 20260503200638 | 61 | 180 | 0.0 | 0.0 | 0.00 | 0.00 | 0.00 | 72 | |
| 20260503200521 | 61 | 180 | 0.0 | 0.0 | 0.00 | 0.00 | 0.00 | 72 | |
| 20260503200436 | 61 | 180 | 0.0 | 0.0 | 0.00 | 0.00 | 0.00 | 72 | |
| 20260503200315 | 61 | 180 | 0.0 | 0.0 | 0.00 | 0.00 | 0.00 | 72 | |
| 20260503200235 | 61 | 180 | 0.0 | 0.0 | 0.00 | 0.00 | 0.00 | 72 | |
| 20260503200033 | 61 | 180 | 0.0 | 0.0 | 0.00 | 0.00 | 0.00 | 71 | |
| 20260503195916 | 61 | 180 | 0.0 | 0.0 | 0.00 | 0.00 | 0.00 | 71 | |
| 20260503195832 | 61 | 180 | 0.0 | 0.0 | 0.00 | 0.00 | 0.00 | 71 | |
| 20260503195630 | 61 | 180 | 0.0 | 0.0 | 0.00 | 0.00 | 0.00 | 71 | |
| 20260503195502 | 61 | 180 | 0.0 | 0.0 | 0.00 | 0.00 | 0.00 | 71 | |
| 20260503195429 | 61 | 180 | 0.0 | 0.0 | 0.00 | 0.00 | 0.00 | 71 | |
| 20260503195320 | 62 | 180 | 0.0 | 0.0 | 0.00 | 0.00 | 0.00 | 71 | |
| 20260503195227 | 62 | 180 | 0.0 | 0.0 | 0.00 | 0.00 | 0.00 | 71 | |
| 20260503195026 | 61 | 180 | 0.0 | 0.0 | 0.00 | 0.00 | 0.00 | 71 | |
| 20260503194824 | 62 | 180 | 0.0 | 0.0 | 0.00 | 0.00 | 0.00 | 70 | |
| 20260503194730 | 61 | 180 | 0.0 | 0.0 | 0.00 | 0.00 | 0.00 | 70 | |
| 20260503194623 | 61 | 180 | 0.0 | 0.0 | 0.00 | 0.00 | 0.00 | 70 | |
| 20260503194421 | 61 | 180 | 0.0 | 0.0 | 0.00 | 0.00 | 0.00 | 70 | |
| 20260503194309 | 62 | 180 | 0.0 | 0.0 | 0.00 | 0.00 | 0.00 | 70 | |
| 20260503194220 | 62 | 180 | 0.0 | 0.0 | 0.00 | 0.00 | 0.00 | 70 | |
| 20260503194115 | 61 | 180 | 0.0 | 0.0 | 0.00 | 0.00 | 0.00 | 70 | |
| 20260503194018 | 61 | 180 | 0.0 | 0.0 | 0.00 | 0.00 | 0.00 | 70 | |
| 20260503193816 | 62 | 180 | 0.0 | 0.0 | 0.00 | 0.00 | 0.00 | 70 | |
| 20260503193614 | 61 | 180 | 0.0 | 0.0 | 0.00 | 0.00 | 0.00 | 69 | |
| 20260503193502 | 62 | 180 | 0.0 | 0.0 | 0.00 | 0.00 | 0.00 | 70 | |
| 20260503193211 | 62 | 180 | 0.0 | 0.0 | 0.00 | 0.00 | 0.00 | 69 | |
| 20260503193009 | 61 | 180 | 0.0 | 0.0 | 0.00 | 0.00 | 0.00 | 69 | |
| 20260503192808 | 62 | 180 | 0.0 | 0.0 | 0.00 | 0.00 | 0.00 | 69 | |
| 20260503192638 | 62 | 180 | 0.0 | 0.0 | 0.00 | 0.00 | 0.00 | 69 | |
| 20260503192605 | 62 | 180 | 0.0 | 0.0 | 0.00 | 0.00 | 0.00 | 69 | |
| 20260503192404 | 62 | 180 | 0.0 | 0.0 | 0.00 | 0.00 | 0.00 | 69 | |
| 20260503192202 | 62 | 180 | 0.0 | 0.0 | 0.00 | 0.00 | 0.00 | 68 | |
| 20260503192001 | 62 | 180 | 0.0 | 0.0 | 0.00 | 0.00 | 0.00 | 68 | |
| 20260503191836 | 63 | 180 | 0.0 | 0.0 | 0.00 | 0.00 | 0.00 | 68 | |
| 20260503191759 | 63 | 180 | 0.0 | 0.0 | 0.00 | 0.00 | 0.00 | 68 | |
| 20260503191639 | 62 | 180 | 0.0 | 0.0 | 0.00 | 0.00 | 0.00 | 67 | |
| 20260503191557 | 62 | 180 | 0.0 | 0.0 | 0.00 | 0.00 | 0.00 | 67 | |
| 20260503191428 | 62 | 180 | 0.0 | 0.0 | 0.00 | 0.00 | 0.00 | 66 | |
| 20260503191355 | 62 | 180 | 0.0 | 0.0 | 0.00 | 0.00 | 0.00 | 66 | |
| 20260503191153 | 63 | 180 | 0.0 | 0.0 | 0.00 | 0.00 | 0.00 | 66 | |
| 20260503190952 | 63 | 180 | 0.0 | 0.0 | 0.00 | 0.00 | 0.00 | 65 | |
| 20260503190750 | 62 | 180 | 0.0 | 0.0 | 0.00 | 0.00 | 0.00 | 65 | |
| 20260503190639 | 63 | 180 | 0.0 | 0.0 | 0.00 | 0.00 | 0.00 | 65 | |
| 20260503190549 | 63 | 180 | 0.0 | 0.0 | 0.00 | 0.00 | 0.00 | 65 | |
| 20260503190346 | 62 | 180 | 0.0 | 0.0 | 0.00 | 0.00 | 0.00 | 64 | |
| 20260503190145 | 62 | 180 | 0.0 | 0.0 | 0.00 | 0.00 | 0.00 | 63 | |
| 20260503185943 | 63 | 180 | 0.0 | 0.0 | 0.00 | 0.00 | 0.00 | 62 | |
| 20260503185540 | 65 | 180 | 0.0 | 0.0 | 0.00 | 0.00 | 0.00 | 60 | |
| 20260503185339 | 64 | 180 | 0.0 | 0.0 | 0.00 | 0.00 | 0.00 | 59 | |
| 20260503185137 | 64 | 180 | 0.0 | 0.0 | 0.00 | 0.00 | 0.00 | 59 | |
| 20260503185009 | 64 | 180 | 0.0 | 0.0 | 0.00 | 0.00 | 0.00 | 58 | |
| 20260503184936 | 64 | 180 | 0.0 | 0.0 | 0.00 | 0.00 | 0.00 | 58 | |
| 20260503184734 | 65 | 180 | 0.0 | 0.0 | 0.00 | 0.00 | 0.00 | 59 | |
| 20260503184533 | 64 | 180 | 0.0 | 0.0 | 0.00 | 0.00 | 0.00 | 58 | |
| 20260503184331 | 64 | 180 | 0.0 | 0.0 | 0.00 | 0.00 | 0.00 | 58 | |
| 20260503184130 | 65 | 180 | 0.0 | 0.0 | 0.00 | 0.00 | 0.00 | 59 | |
| 20260503183928 | 65 | 180 | 0.0 | 0.0 | 0.00 | 0.00 | 0.00 | 58 | |
| 20260503183727 | 64 | 180 | 0.0 | 0.0 | 0.00 | 0.00 | 0.00 | 57 | |
| 20260503183525 | 65 | 180 | 0.0 | 0.0 | 0.00 | 0.00 | 0.00 | 57 | |
| 20260503183324 | 64 | 180 | 0.0 | 0.0 | 0.00 | 0.00 | 0.00 | 58 | |
| 20260503183122 | 65 | 180 | 0.0 | 0.0 | 0.00 | 0.00 | 0.00 | 58 | |
| 20260503182921 | 66 | 180 | 0.0 | 0.0 | 0.00 | 0.00 | 0.00 | 59 | |
| 20260503182719 | 65 | 180 | 0.0 | 0.0 | 0.00 | 0.00 | 0.00 | 58 | |
| 20260503182518 | 66 | 180 | 0.0 | 0.0 | 0.00 | 0.00 | 0.00 | 59 | |
| 20260503182316 | 65 | 180 | 0.0 | 0.0 | 0.00 | 0.00 | 0.00 | 59 | |
| 20260503182115 | 65 | 180 | 0.0 | 0.0 | 0.00 | 0.00 | 0.00 | 60 | |
| 20260503181913 | 64 | 180 | 0.0 | 0.0 | 0.00 | 0.00 | 0.00 | 60 | |
| 20260503181712 | 64 | 180 | 0.0 | 0.0 | 0.00 | 0.00 | 0.00 | 60 | |
| 20260503181510 | 64 | 180 | 0.0 | 0.0 | 0.00 | 0.00 | 0.00 | 59 | |
| 20260503181309 | 64 | 180 | 0.0 | 0.0 | 0.00 | 0.00 | 0.00 | 59 | |
| 20260503181107 | 65 | 180 | 0.0 | 0.0 | 0.00 | 0.00 | 0.00 | 60 | |
| 20260503180906 | 64 | 180 | 0.0 | 0.0 | 0.00 | 0.00 | 0.00 | 60 | |
| 20260503180704 | 64 | 180 | 0.0 | 0.0 | 0.00 | 0.00 | 0.00 | 60 | |
| 20260503180503 | 64 | 180 | 0.0 | 0.0 | 0.00 | 0.00 | 0.00 | 60 | |
| 20260503180301 | 64 | 180 | 0.0 | 0.0 | 0.00 | 0.00 | 0.00 | 60 | |
| 20260503180100 | 63 | 180 | 0.0 | 0.0 | 0.00 | 0.00 | 0.00 | 61 | |
| 20260503175858 | 64 | 180 | 0.0 | 0.0 | 0.00 | 0.00 | 0.00 | 61 | |
| 20260503175728 | 64 | 180 | 0.0 | 0.0 | 0.00 | 0.00 | 0.00 | 61 | |
| 20260503175657 | 64 | 180 | 0.0 | 0.0 | 0.00 | 0.00 | 0.00 | 61 | |
| 20260503175455 | 63 | 180 | 0.0 | 0.0 | 0.00 | 0.00 | 0.00 | 60 | |
| 20260503175329 | 64 | 180 | 0.0 | 0.0 | 0.00 | 0.00 | 0.00 | 60 | |
| 20260503175254 | 64 | 180 | 0.0 | 0.0 | 0.00 | 0.00 | 0.00 | 60 | |
| 20260503175052 | 64 | 180 | 0.0 | 0.0 | 0.00 | 0.00 | 0.00 | 59 | |
| 20260503174935 | 64 | 180 | 0.0 | 0.0 | 0.00 | 0.00 | 0.00 | 58 | |
| 20260503174850 | 64 | 180 | 0.0 | 0.0 | 0.00 | 0.00 | 0.00 | 58 | |
| 20260503174649 | 66 | 180 | 0.0 | 0.0 | 0.00 | 0.00 | 0.00 | 57 | |
| 20260503174447 | 65 | 180 | 0.0 | 0.0 | 0.00 | 0.00 | 0.00 | 58 | |
| 20260503174044 | 66 | 180 | 0.0 | 0.0 | 0.00 | 0.00 | 0.00 | 58 | |
| 20260503173843 | 66 | 180 | 0.0 | 0.0 | 0.00 | 0.00 | 0.00 | 58 | |
| 20260503173721 | 66 | 180 | 0.0 | 0.0 | 0.00 | 0.00 | 0.00 | 58 | |
| 20260503173641 | 66 | 180 | 0.0 | 0.0 | 0.00 | 0.00 | 0.00 | 58 | |
| 20260503173439 | 65 | 180 | 0.0 | 0.0 | 0.00 | 0.00 | 0.00 | 57 | |
| 20260503173239 | 66 | 180 | 0.0 | 0.0 | 0.00 | 0.00 | 0.00 | 58 | |
| 20260503173036 | 66 | 180 | 0.0 | 0.0 | 0.00 | 0.00 | 0.00 | 57 | |
| 20260503172835 | 66 | 180 | 0.0 | 0.0 | 0.00 | 0.00 | 0.00 | 57 | |
| 20260503172633 | 67 | 180 | 0.0 | 0.0 | 0.00 | 0.00 | 0.00 | 57 | |
| 20260503172432 | 67 | 180 | 0.0 | 0.0 | 0.00 | 0.00 | 0.00 | 58 | |
| 20260503172230 | 67 | 180 | 0.0 | 0.0 | 0.00 | 0.00 | 0.00 | 58 | |
| 20260503172029 | 67 | 180 | 0.0 | 0.0 | 0.00 | 0.00 | 0.00 | 57 | |
| 20260503171905 | 68 | 180 | 0.0 | 0.0 | 0.00 | 0.00 | 0.00 | 57 | |
| 20260503171827 | 68 | 180 | 0.0 | 0.0 | 0.00 | 0.00 | 0.00 | 57 | |
| 20260503171626 | 68 | 180 | 0.0 | 0.0 | 0.00 | 0.00 | 0.00 | 57 | |
| 20260503171423 | 68 | 180 | 0.0 | 0.0 | 0.00 | 0.00 | 0.00 | 57 | |
| 20260503171222 | 68 | 180 | 0.0 | 0.0 | 0.00 | 0.00 | 0.00 | 58 | |
| 20260503171021 | 67 | 180 | 0.0 | 0.0 | 0.00 | 0.00 | 0.00 | 57 | |
| 20260503170858 | 67 | 180 | 0.0 | 0.0 | 0.00 | 0.00 | 0.00 | 59 | |
| 20260503170818 | 67 | 180 | 0.0 | 0.0 | 0.00 | 0.00 | 0.00 | 59 | |
| 20260503170704 | 65 | 180 | 0.0 | 0.0 | 0.00 | 0.00 | 0.00 | 60 | |
| 20260503170616 | 65 | 180 | 0.0 | 0.0 | 0.00 | 0.00 | 0.00 | 60 | |
| 20260503170415 | 65 | 180 | 0.0 | 0.0 | 0.00 | 0.00 | 0.00 | 59 | |
| 20260503170247 | 66 | 180 | 0.0 | 0.0 | 0.00 | 0.00 | 0.00 | 58 | |
| 20260503170213 | 66 | 180 | 0.0 | 0.0 | 0.00 | 0.00 | 0.00 | 58 | |
| 20260503160127 | 68 | 180 | 0.0 | 0.0 | 0.00 | 0.00 | 0.00 | 63 | |
| 20260503150846 | 69 | 180 | 0.0 | 0.0 | 0.00 | 0.00 | 0.00 | 53 | |
| 20260503150722 | 69 | 180 | 0.0 | 0.0 | 0.00 | 0.00 | 0.00 | 53 | |
| 20260503150645 | 69 | 180 | 0.0 | 0.0 | 0.00 | 0.00 | 0.00 | 53 | |
| 20260503150526 | 69 | 180 | 0.0 | 0.0 | 0.00 | 0.00 | 0.00 | 52 | |
| 20260503150443 | 69 | 180 | 0.0 | 0.0 | 0.00 | 0.00 | 0.00 | 52 | |
| 20260503150242 | 69 | 180 | 0.0 | 0.0 | 0.00 | 0.00 | 0.00 | 51 |